TimeCDT,TemperatureF,Dew PointF,Humidity,Sea Level PressureIn,VisibilityMPH,Wind Direction,Wind SpeedMPH,Gust SpeedMPH,PrecipitationIn,Events,Conditions,WindDirDegrees,DateUTC
12:15 AM,50.0,44.6,82,30.02,10.0,Calm,Calm,-,N/A,,Clear,0,2012-11-01 05:15:00
12:35 AM,50.0,42.8,76,30.02,10.0,Calm,Calm,-,N/A,,Clear,0,2012-11-01 05:35:00
12:55 AM,46.4,42.8,87,30.02,10.0,Calm,Calm,-,N/A,,Clear,0,2012-11-01 05:55:00
1:15 AM,46.4,42.8,87,30.02,10.0,Calm,Calm,-,N/A,,Clear,0,2012-11-01 06:15:00
1:35 AM,48.2,42.8,82,30.02,10.0,Calm,Calm,-,N/A,,Clear,0,2012-11-01 06:35:00
1:55 AM,48.2,42.8,82,30.02,10.0,Calm,Calm,-,N/A,,Clear,0,2012-11-01 06:55:00
2:15 AM,50.0,44.6,82,30.02,10.0,SSW,3.5,-,N/A,,Clear,200,2012-11-01 07:15:00
2:35 AM,50.0,42.8,76,30.01,10.0,SSE,3.5,-,N/A,,Clear,160,2012-11-01 07:35:00
2:55 AM,48.2,42.8,82,30.01,10.0,Calm,Calm,-,N/A,,Clear,0,2012-11-01 07:55:00
3:15 AM,46.4,42.8,87,30.01,10.0,Calm,Calm,-,N/A,,Clear,0,2012-11-01 08:15:00
3:35 AM,44.6,42.8,93,30.01,10.0,Calm,Calm,-,N/A,,Clear,0,2012-11-01 08:35:00
3:55 AM,44.6,41.0,87,30.00,10.0,Calm,Calm,-,N/A,,Clear,0,2012-11-01 08:55:00
4:15 AM,42.8,41.0,93,30.00,10.0,Calm,Calm,-,N/A,,Clear,0,2012-11-01 09:15:00
4:35 AM,42.8,41.0,93,30.00,10.0,Calm,Calm,-,N/A,,Clear,0,2012-11-01 09:35:00
4:55 AM,44.6,41.0,87,30.00,10.0,Calm,Calm,-,N/A,,Clear,0,2012-11-01 09:55:00
5:15 AM,44.6,41.0,87,30.00,10.0,Calm,Calm,-,N/A,,Clear,0,2012-11-01 10:15:00
5:35 AM,44.6,41.0,87,30.00,10.0,Calm,Calm,-,N/A,,Clear,0,2012-11-01 10:35:00
5:55 AM,44.6,41.0,87,30.00,10.0,Calm,Calm,-,N/A,,Clear,0,2012-11-01 10:55:00
6:15 AM,42.8,41.0,93,30.00,10.0,Calm,Calm,-,N/A,,Clear,0,2012-11-01 11:15:00
6:35 AM,42.8,41.0,93,30.00,10.0,Calm,Calm,-,N/A,,Clear,0,2012-11-01 11:35:00
6:55 AM,42.8,41.0,93,30.00,10.0,Calm,Calm,-,N/A,,Clear,0,2012-11-01 11:55:00
7:15 AM,42.8,41.0,93,30.00,10.0,Calm,Calm,-,N/A,,Clear,0,2012-11-01 12:15:00
7:35 AM,42.8,41.0,93,30.01,10.0,Calm,Calm,-,N/A,,Clear,0,2012-11-01 12:35:00
7:55 AM,42.8,41.0,93,30.01,10.0,Calm,Calm,-,N/A,,Clear,0,2012-11-01 12:55:00
8:15 AM,42.8,41.0,93,30.03,10.0,Calm,Calm,-,N/A,,Clear,0,2012-11-01 13:15:00
8:35 AM,46.4,41.0,81,30.04,10.0,Calm,Calm,-,N/A,,Clear,0,2012-11-01 13:35:00
8:55 AM,50.0,42.8,76,30.05,10.0,Calm,Calm,-,N/A,,Clear,0,2012-11-01 13:55:00
9:15 AM,53.6,44.6,72,30.05,10.0,Calm,Calm,-,N/A,,Clear,0,2012-11-01 14:15:00
9:35 AM,57.2,44.6,63,30.05,10.0,Calm,Calm,-,N/A,,Clear,0,2012-11-01 14:35:00
9:55 AM,60.8,44.6,55,30.05,10.0,Calm,Calm,-,N/A,,Clear,0,2012-11-01 14:55:00
10:15 AM,62.6,44.6,52,30.06,10.0,WSW,3.5,-,N/A,,Clear,240,2012-11-01 15:15:00
10:35 AM,64.4,46.4,52,30.05,10.0,Calm,Calm,-,N/A,,Clear,0,2012-11-01 15:35:00
10:55 AM,68.0,46.4,46,30.05,10.0,Calm,Calm,-,N/A,,Clear,0,2012-11-01 15:55:00
11:15 AM,71.6,50.0,46,30.05,10.0,WSW,4.6,-,N/A,,Clear,240,2012-11-01 16:15:00
11:35 AM,73.4,50.0,44,30.05,10.0,West,5.8,-,N/A,,Clear,260,2012-11-01 16:35:00
12:15 PM,77.0,50.0,39,30.04,10.0,SW,4.6,-,N/A,,Clear,220,2012-11-01 17:15:00
12:35 PM,80.6,50.0,34,30.03,10.0,SW,9.2,-,N/A,,Clear,220,2012-11-01 17:35:00
12:55 PM,82.4,48.2,30,30.01,10.0,SW,8.1,-,N/A,,Clear,230,2012-11-01 17:55:00
1:15 PM,82.4,48.2,30,30.00,10.0,WSW,10.4,-,N/A,,Clear,240,2012-11-01 18:15:00
1:35 PM,82.4,50.0,32,29.99,10.0,South,5.8,-,N/A,,Clear,190,2012-11-01 18:35:00
1:55 PM,84.2,46.4,27,29.98,10.0,SW,5.8,-,N/A,,Clear,230,2012-11-01 18:55:00
2:15 PM,86.0,46.4,25,29.97,10.0,SSW,12.7,17.3,N/A,,Clear,210,2012-11-01 19:15:00
2:35 PM,86.0,48.2,27,29.96,10.0,SW,9.2,-,N/A,,Clear,220,2012-11-01 19:35:00
2:55 PM,86.0,46.4,25,29.95,10.0,WSW,8.1,-,N/A,,Clear,240,2012-11-01 19:55:00
3:15 PM,86.0,46.4,25,29.94,10.0,WSW,5.8,-,N/A,,Clear,240,2012-11-01 20:15:00
3:35 PM,86.0,44.6,23,29.94,10.0,SW,8.1,-,N/A,,Clear,220,2012-11-01 20:35:00
4:15 PM,87.8,41.0,19,29.93,10.0,SSW,8.1,-,N/A,,Clear,210,2012-11-01 21:15:00
4:35 PM,86.0,42.8,22,29.93,10.0,SW,8.1,-,N/A,,Clear,230,2012-11-01 21:35:00
4:55 PM,86.0,42.8,22,29.93,10.0,SSW,6.9,-,N/A,,Clear,200,2012-11-01 21:55:00
5:15 PM,86.0,42.8,22,29.93,10.0,SW,5.8,-,N/A,,Clear,220,2012-11-01 22:15:00
5:35 PM,86.0,41.0,20,29.93,10.0,SSW,9.2,-,N/A,,Clear,210,2012-11-01 22:35:00
5:55 PM,84.2,39.2,20,29.93,10.0,SSW,6.9,-,N/A,,Clear,210,2012-11-01 22:55:00
6:15 PM,80.6,41.0,24,29.93,10.0,SSW,4.6,-,N/A,,Clear,200,2012-11-01 23:15:00
6:35 PM,78.8,41.0,26,29.93,10.0,South,4.6,-,N/A,,Clear,190,2012-11-01 23:35:00
6:55 PM,77.0,41.0,28,29.93,10.0,South,3.5,-,N/A,,Clear,190,2012-11-01 23:55:00
7:15 PM,75.2,41.0,29,29.93,10.0,South,3.5,-,N/A,,Clear,190,2012-11-02 00:15:00
7:35 PM,69.8,41.0,35,29.94,10.0,Calm,Calm,-,N/A,,Clear,0,2012-11-02 00:35:00
7:55 PM,68.0,41.0,37,29.94,10.0,Calm,Calm,-,N/A,,Clear,0,2012-11-02 00:55:00
8:15 PM,66.2,42.8,43,29.94,10.0,Calm,Calm,-,N/A,,Clear,0,2012-11-02 01:15:00
8:55 PM,60.8,44.6,55,29.95,10.0,Calm,Calm,-,N/A,,Clear,0,2012-11-02 01:55:00
9:15 PM,60.8,44.6,55,29.95,10.0,Calm,Calm,-,N/A,,Clear,0,2012-11-02 02:15:00
9:35 PM,59.0,44.6,59,29.95,10.0,Calm,Calm,-,N/A,,Clear,0,2012-11-02 02:35:00
9:55 PM,59.0,44.6,59,29.95,10.0,Calm,Calm,-,N/A,,Clear,0,2012-11-02 02:55:00
10:15 PM,57.2,44.6,63,29.95,10.0,Calm,Calm,-,N/A,,Clear,0,2012-11-02 03:15:00
10:35 PM,55.4,44.6,67,29.96,10.0,Calm,Calm,-,N/A,,Clear,0,2012-11-02 03:35:00
10:55 PM,55.4,44.6,67,29.95,10.0,East,3.5,-,N/A,,Clear,90,2012-11-02 03:55:00
11:15 PM,53.6,44.6,72,29.96,10.0,ESE,3.5,-,N/A,,Clear,120,2012-11-02 04:15:00
11:35 PM,53.6,44.6,72,29.95,10.0,Calm,Calm,-,N/A,,Clear,0,2012-11-02 04:35:00
11:55 PM,53.6,44.6,72,29.95,10.0,Calm,Calm,-,N/A,,Clear,0,2012-11-02 04:55:00